#timestamp,LO_Frequency,Hit,StdDev 
1553378415.6,286046996.6,N
1553378435.5,286046996.7,N
1553378455.3,286046997.9,N
1553378475.1,286046997.6,N
1553378495.9,286046996.7,N
1553378515.7,286047000.5,N
1553378535.6,286046996.9,N
1553378555.4,286046996.9,N
1553378575.2,286046998.3,N
1553378595.1,286046998.6,N
1553378596.0,286046998.6,N
1553378615.8,286046999.8,N
1553378635.7,286047003.4,N
1553378655.5,286047007.6,Y
1553378675.3,286047009.8,P
1553378695.2,286047012.4,N
1553378715.0,286047009.8,N
1553378715.9,286047009.8,N
1553378735.8,286047011.9,N
1553378755.6,286047014.8,N
1553378775.4,286047016.9,Y
1553378795.3,286047006.9,P
1553378815.1,286047006.7,P
1553378835.8,286047004.8,P
1553378855.7,286047007.3,Y
1553378875.5,286046996.8,P
1553378895.4,286046998.5,N
1553378915.2,286046999.1,N
1553378935.0,286046999.6,N
1553378935.9,286046999.6,N
1553378955.8,286046995.2,N
1553378975.6,286046998.9,N
1553378995.5,286047000.9,N
1553379015.3,286046999.0,N
1553379035.1,286046997.7,N
1553379055.9,286046996.8,N
1553379075.7,286046997.4,N
1553379095.5,286046995.1,N
1553379115.4,286046994.4,N
1553379135.2,286046993.8,N
1553379155.1,286046994.7,N
1553379156.0,286046994.7,N
1553379175.8,286046991.2,N
1553379195.6,286046989.9,Y
1553379215.5,286046992.4,P
1553379235.3,286046995.1,N
1553379255.1,286046997.9,N
1553379275.9,286046999.3,N
1553379295.7,286046998.8,N
1553379315.6,286047002.7,N
1553379335.4,286047006.0,N
1553379355.2,286047006.2,N
1553379375.1,286047007.5,N
1553379376.0,286047007.5,N
1553379395.8,286047007.6,N
1553379415.7,286047003.3,N
1553379435.5,286047003.2,N
1553379455.3,286047004.4,N
1553379475.2,286047005.9,N
1553379495.0,286047005.7,N
1553379495.9,286047005.7,N
1553379515.7,286047003.4,N
1553379535.6,286047004.4,N
1553379555.4,286047004.3,N
1553379575.3,286047004.7,N
1553379595.1,286047001.5,N
1553379596.0,286047001.5,N
1553379615.8,286047004.0,N
1553379635.7,286047005.5,N
1553379655.5,286047006.2,N
1553379675.4,286047005.1,N
1553379695.2,286047004.6,N
1553379715.0,286047008.1,N
1553379715.9,286047008.1,N
1553379735.8,286047007.2,N
1553379755.6,286047004.6,N
1553379775.4,286047004.7,N
1553379795.3,286047004.5,N
1553379815.1,286047006.7,Y
1553379835.9,286046998.5,P
1553379855.7,286046996.9,N
1553379875.5,286047001.0,N
1553379895.4,286047002.2,N
1553379915.2,286047000.2,N
1553379935.0,286047000.1,N
1553379936.0,286047000.1,N
1553379955.8,286047001.2,N
1553379975.6,286047000.6,N
1553379995.5,286047003.3,N
1553380015.3,286047009.9,Y
1553380035.1,286047008.3,P
1553380055.9,286047010.5,N
1553380075.7,286047009.9,N
1553380095.6,286047011.8,Y
1553380115.4,286047005.8,P
1553380135.2,286047008.6,P
1553380155.1,286047009.9,P
1553380156.0,286047009.9,Y
1553380175.8,286047001.7,P
1553380195.7,286047005.1,N
1553380215.5,286047006.8,N
1553380235.3,286047005.8,N
1553380255.2,286047007.1,Y
1553380275.0,286047000.7,P
1553380275.9,286047000.7,N
1553380295.8,286047002.5,N
1553380315.6,286047000.2,N
1553380335.4,286047003.2,N
1553380355.3,286047001.6,N
1553380375.1,286046999.7,N
1553380395.8,286047004.4,N
1553380415.7,286047005.2,N
1553380435.5,286047008.2,Y
1553380455.4,286047006.1,P
1553380475.2,286047009.1,P
1553380495.0,286047008.4,P
1553380495.9,286047008.4,Y
1553380515.8,286047001.4,P
1553380535.6,286047001.5,N
1553380555.5,286047002.2,N
1553380575.3,286047003.9,N
1553380595.1,286047001.9,N
1553380615.9,286047005.7,Y
1553380635.7,286047005.9,P
1553380655.6,286047008.6,P
1553380675.4,286047010.3,P
1553380695.2,286047007.2,N
1553380715.1,286047003.0,N
1553380716.0,286047003.0,N
1553380735.8,286047005.9,N
1553380755.6,286047003.4,N
1553380775.5,286047002.8,N
1553380795.3,286047002.1,N
1553380815.2,286047003.9,N
1553380835.9,286047006.4,N
1553380855.7,286047006.2,N
1553380875.6,286047004.7,N
1553380895.4,286047002.9,N
1553380915.2,286047004.5,N
1553380935.1,286047006.2,N
1553380936.0,286047006.2,N
1553380955.8,286047007.3,Y
1553380975.7,286047002.6,P
1553380995.5,286047004.1,P
1553381015.3,286047001.3,N
1553381035.2,286047002.8,N
1553381055.0,286047000.9,N
1553381055.9,286047000.9,N
1553381075.8,286046998.7,N
1553381095.6,286047000.1,N
1553381115.4,286047000.1,N
1553381135.3,286047001.4,N
1553381155.1,286047003.3,N
1553381175.8,286047003.7,N
1553381195.7,286047007.6,Y
1553381215.5,286047002.7,P
1553381235.4,286047000.4,N
1553381255.2,286047000.6,N
1553381275.0,286047001.5,N
1553381275.9,286047001.5,N
1553381295.8,286047000.2,N
1553381315.6,286047001.9,N
1553381335.5,286047000.1,N
1553381355.3,286047002.3,N
1553381375.1,286047001.3,N
1553381395.9,286047007.0,Y
1553381415.7,286047007.4,P
1553381435.5,286047010.4,P
1553381455.4,286047009.9,N
1553381475.2,286047008.3,N
1553381495.1,286047007.4,N
1553381496.0,286047007.4,N
1553381515.8,286047007.0,N
1553381535.6,286047015.6,Y
1553381555.5,286047003.0,P
1553381575.3,286047003.8,N
1553381595.2,286047004.0,N
1553381615.9,286047001.9,N
1553381635.7,286047002.1,N
1553381655.6,286046999.9,N
1553381675.4,286047002.8,N
1553381695.2,286047000.8,N
1553381715.1,286047001.2,N
1553381716.0,286047001.2,N
1553381735.8,286046999.9,N
1553381755.7,286047002.1,N
1553381775.5,286047000.3,N
1553381795.3,286047000.8,N
1553381815.2,286046998.9,N
1553381835.0,286046997.8,N
1553381835.9,286046997.8,N
1553381855.7,286046997.3,N
1553381875.6,286046995.3,N
1553381895.4,286046992.1,N
1553381915.3,286046994.3,N
1553381935.1,286046994.0,N
1553381936.0,286046994.0,N
1553381955.8,286046993.8,N
1553381975.7,286046995.3,N
1553381995.5,286046996.7,N
